This is the latest recevied weather packets stored in our database for station/object KE5BM-13. If no packets are shown the sender has not sent any weather packets the latest 1 day(s).
| Time | Temp. | Humidity | Pressure | Rain* | Wind** | Luminosity | Snow |
|---|---|---|---|---|---|---|---|
| 1777975164 | 11.11° C | 89% | 1011.5 hPa | 0 mm | 2.24 m/s, 138° | - | - |
| 1777974865 | 11.11° C | 89% | 1011.5 hPa | 0 mm | 1.79 m/s, 181° | - | - |
| 1777974562 | 11.11° C | 89% | 1011.5 hPa | 0 mm | 1.34 m/s, 138° | - | - |
| 1777974262 | 11.11° C | 89% | 1011.5 hPa | 0 mm | 1.79 m/s, 155° | - | - |
| 1777973963 | 11.11° C | 89% | 1011.5 hPa | 0 mm | 1.79 m/s, 196° | - | - |
| 1777973660 | 11.11° C | 89% | 1011.4 hPa | 0 mm | 1.79 m/s, 160° | - | - |
| 1777973360 | 11.11° C | 89% | 1011.3 hPa | 0 mm | 1.34 m/s, 155° | - | - |
| 1777973059 | 11.11° C | 89% | 1011.3 hPa | 0 mm | 1.34 m/s, 134° | - | - |
| 1777972758 | 11.11° C | 89% | 1011.4 hPa | 0 mm | 0.89 m/s, 164° | - | - |
| 1777972458 | 11.11° C | 90% | 1011.4 hPa | 0 mm | 1.34 m/s, 155° | - | - |
| 1777972157 | 10.56° C | 90% | 1011.4 hPa | 0 mm | 0.89 m/s, 172° | - | - |
| 1777971858 | 10.56° C | 90% | 1011.3 hPa | 0 mm | 0.89 m/s, 175° | - | - |
| 1777971558 | 10.56° C | 90% | 1011.4 hPa | 0 mm | 0.89 m/s, 152° | - | - |
| 1777971256 | 10.56° C | 90% | 1011.4 hPa | 0 mm | 0.89 m/s, 207° | - | - |
| 1777970955 | 10.56° C | 90% | 1011.4 hPa | 0 mm | 0.89 m/s, 149° | - | - |
| 1777970652 | 10.56° C | 90% | 1011.3 hPa | 0 mm | 0.89 m/s, 156° | - | - |
| 1777970352 | 10.56° C | 91% | 1011.3 hPa | 0 mm | 0.89 m/s, 196° | - | - |
| 1777970047 | 10.56° C | 91% | 1011.4 hPa | 0 mm | 0.89 m/s, 171° | - | - |
| 1777969743 | 10.56° C | 91% | 1011.4 hPa | 0 mm | 0.89 m/s, 163° | - | - |
| 1777969427 | 10.56° C | 91% | 1011.5 hPa | 0 mm | 0.89 m/s, 139° | - | - |
| 1777969124 | 10.56° C | 91% | 1011.5 hPa | 0 mm | 0.89 m/s, 177° | - | - |
| 1777968824 | 10.56° C | 91% | 1011.6 hPa | 0 mm | 0.89 m/s, 153° | - | - |
| 1777968522 | 10.56° C | 91% | 1011.6 hPa | 0 mm | 0.89 m/s, 150° | - | - |
| 1777968224 | 10.56° C | 91% | 1011.7 hPa | 0 mm | 1.34 m/s, 173° | - | - |
| 1777967914 | 10.56° C | 91% | 1011.6 hPa | 0 mm | 1.34 m/s, 160° | - | - |
* Rain latest hour (hover to see other rain measurements)
** Current wind speed in m/s (hover to see current wind gust speed)